Time,TemperatureF,DewpointF,PressureIn,WindDirection,WindDirectionDegrees,WindSpeedMPH,WindSpeedGustMPH,Humidity,HourlyPrecipIn,Conditions,Clouds,dailyrainin,SolarRadiationWatts/m^2,SoftwareType,DateUTC
2013-08-01 00:04:00,62.0,52.1,29.93,East,94,6.0,8.0,70,0.00,,,0.00,0,WeatherTracker,2013-08-01 07:04:00,
2013-08-01 00:09:00,61.7,52.2,29.93,ESE,105,9.0,9.0,71,0.00,,,0.00,0,WeatherTracker,2013-08-01 07:09:00,
2013-08-01 00:14:00,61.4,51.9,29.93,ESE,109,5.0,11.0,71,0.00,,,0.00,0,WeatherTracker,2013-08-01 07:14:00,
2013-08-01 00:20:00,61.1,52.0,29.93,ESE,113,2.0,9.0,72,0.00,,,0.00,0,WeatherTracker,2013-08-01 07:20:00,
2013-08-01 00:25:00,60.8,52.1,29.93,ESE,110,4.0,8.0,73,0.00,,,0.00,0,WeatherTracker,2013-08-01 07:25:00,
2013-08-01 00:30:00,60.4,51.7,29.93,ESE,111,7.0,8.0,73,0.00,,,0.00,0,WeatherTracker,2013-08-01 07:30:00,
2013-08-01 00:35:00,60.2,51.9,29.93,ESE,105,7.0,8.0,74,0.00,,,0.00,0,WeatherTracker,2013-08-01 07:35:00,
2013-08-01 00:40:00,60.2,51.9,29.93,ESE,104,6.0,7.0,74,0.00,,,0.00,0,WeatherTracker,2013-08-01 07:40:00,
2013-08-01 00:45:00,60.0,51.7,29.93,ESE,107,4.0,8.0,74,0.00,,,0.00,0,WeatherTracker,2013-08-01 07:45:00,
2013-08-01 00:50:00,59.9,51.6,29.93,SE,126,6.0,9.0,74,0.00,,,0.00,0,WeatherTracker,2013-08-01 07:50:00,
2013-08-01 00:55:00,59.8,51.5,29.93,ESE,121,4.0,9.0,74,0.00,,,0.00,0,WeatherTracker,2013-08-01 07:55:00,
2013-08-01 01:00:00,59.6,51.7,29.93,ESE,115,4.0,8.0,75,0.00,,,0.00,0,WeatherTracker,2013-08-01 08:00:00,
2013-08-01 01:05:00,59.6,51.7,29.93,ESE,117,0.0,8.0,75,0.00,,,0.00,0,WeatherTracker,2013-08-01 08:05:00,
2013-08-01 01:10:00,59.6,51.7,29.93,ESE,116,0.0,6.0,75,0.00,,,0.00,0,WeatherTracker,2013-08-01 08:10:00,
2013-08-01 01:15:00,59.6,51.7,29.93,ESE,112,1.0,6.0,75,0.00,,,0.00,0,WeatherTracker,2013-08-01 08:15:00,
2013-08-01 01:21:00,59.5,51.6,29.93,ESE,111,6.0,6.0,75,0.00,,,0.00,0,WeatherTracker,2013-08-01 08:21:00,
2013-08-01 01:26:00,59.2,51.3,29.93,ESE,111,2.0,6.0,75,0.00,,,0.00,0,WeatherTracker,2013-08-01 08:26:00,
2013-08-01 01:31:00,59.0,51.4,29.93,ESE,111,2.0,6.0,76,0.00,,,0.00,0,WeatherTracker,2013-08-01 08:31:00,
2013-08-01 01:36:00,59.0,51.4,29.93,ESE,109,5.0,7.0,76,0.00,,,0.00,0,WeatherTracker,2013-08-01 08:36:00,
2013-08-01 01:41:00,59.0,51.4,29.93,ESE,105,0.0,7.0,76,0.00,,,0.00,0,WeatherTracker,2013-08-01 08:41:00,
2013-08-01 01:46:00,59.0,51.8,29.93,ESE,108,4.0,6.0,77,0.00,,,0.00,0,WeatherTracker,2013-08-01 08:46:00,
2013-08-01 01:51:00,59.0,51.8,29.93,ESE,107,0.0,6.0,77,0.00,,,0.00,0,WeatherTracker,2013-08-01 08:51:00,
2013-08-01 01:57:00,58.9,51.7,29.93,ESE,107,5.0,6.0,77,0.00,,,0.00,0,WeatherTracker,2013-08-01 08:57:00,
2013-08-01 02:02:00,58.7,51.9,29.93,ESE,110,2.0,7.0,78,0.00,,,0.00,0,WeatherTracker,2013-08-01 09:02:00,
2013-08-01 02:07:00,58.5,51.7,29.93,ESE,111,0.0,8.0,78,0.00,,,0.00,0,WeatherTracker,2013-08-01 09:07:00,
2013-08-01 02:12:00,58.5,51.7,29.93,ESE,111,5.0,8.0,78,0.00,,,0.00,0,WeatherTracker,2013-08-01 09:12:00,
2013-08-01 02:17:00,58.4,51.6,29.92,ESE,112,4.0,7.0,78,0.00,,,0.00,0,WeatherTracker,2013-08-01 09:17:00,
2013-08-01 02:22:00,58.3,51.5,29.92,ESE,114,4.0,8.0,78,0.00,,,0.00,0,WeatherTracker,2013-08-01 09:22:00,
2013-08-01 02:27:00,58.1,51.3,29.92,ESE,115,4.0,8.0,78,0.00,,,0.00,0,WeatherTracker,2013-08-01 09:27:00,
2013-08-01 02:32:00,58.0,51.5,29.92,ESE,116,7.0,7.0,79,0.00,,,0.00,0,WeatherTracker,2013-08-01 09:32:00,
2013-08-01 02:38:00,57.9,51.4,29.92,ESE,116,4.0,7.0,79,0.00,,,0.00,0,WeatherTracker,2013-08-01 09:38:00,
2013-08-01 02:43:00,57.9,51.4,29.92,ESE,115,4.0,8.0,79,0.00,,,0.00,0,WeatherTracker,2013-08-01 09:43:00,
2013-08-01 02:48:00,57.9,51.4,29.92,ESE,116,5.0,8.0,79,0.00,,,0.00,0,WeatherTracker,2013-08-01 09:48:00,
2013-08-01 02:53:00,57.8,51.3,29.92,SE,127,4.0,9.0,79,0.00,,,0.00,0,WeatherTracker,2013-08-01 09:53:00,
2013-08-01 02:58:00,57.8,51.3,29.92,SE,124,6.0,9.0,79,0.00,,,0.00,0,WeatherTracker,2013-08-01 09:58:00,
2013-08-01 03:03:00,57.7,51.2,29.92,SE,125,5.0,9.0,79,0.00,,,0.00,0,WeatherTracker,2013-08-01 10:03:00,
2013-08-01 03:08:00,57.7,51.2,29.92,ESE,123,6.0,8.0,79,0.00,,,0.00,0,WeatherTracker,2013-08-01 10:08:00,
2013-08-01 03:14:00,57.6,51.1,29.92,ESE,121,4.0,8.0,79,0.00,,,0.00,0,WeatherTracker,2013-08-01 10:14:00,
2013-08-01 03:19:00,57.5,51.0,29.92,ESE,119,6.0,7.0,79,0.00,,,0.00,0,WeatherTracker,2013-08-01 10:19:00,
2013-08-01 03:24:00,57.4,51.3,29.92,ESE,119,5.0,7.0,80,0.00,,,0.00,0,WeatherTracker,2013-08-01 10:24:00,
2013-08-01 03:29:00,57.5,51.4,29.93,ESE,120,2.0,8.0,80,0.00,,,0.00,0,WeatherTracker,2013-08-01 10:29:00,
2013-08-01 03:34:00,57.4,51.3,29.92,ESE,115,4.0,8.0,80,0.00,,,0.00,0,WeatherTracker,2013-08-01 10:34:00,
2013-08-01 03:39:00,57.2,51.1,29.92,ESE,115,5.0,8.0,80,0.00,,,0.00,0,WeatherTracker,2013-08-01 10:39:00,
2013-08-01 03:44:00,57.0,50.9,29.93,ESE,112,4.0,7.0,80,0.00,,,0.00,0,WeatherTracker,2013-08-01 10:44:00,
2013-08-01 03:49:00,56.9,50.8,29.92,ESE,106,1.0,7.0,80,0.00,,,0.00,0,WeatherTracker,2013-08-01 10:49:00,
2013-08-01 03:54:00,56.8,50.7,29.92,ESE,106,4.0,7.0,80,0.00,,,0.00,0,WeatherTracker,2013-08-01 10:54:00,
2013-08-01 03:59:00,56.9,50.8,29.93,ESE,105,6.0,7.0,80,0.00,,,0.00,0,WeatherTracker,2013-08-01 10:59:00,
2013-08-01 04:04:00,56.8,50.7,29.93,ESE,103,1.0,7.0,80,0.00,,,0.00,0,WeatherTracker,2013-08-01 11:04:00,
2013-08-01 04:09:00,56.7,50.6,29.93,ESE,105,4.0,7.0,80,0.00,,,0.00,0,WeatherTracker,2013-08-01 11:09:00,
2013-08-01 04:14:00,56.6,50.5,29.93,ESE,104,5.0,7.0,80,0.00,,,0.00,0,WeatherTracker,2013-08-01 11:14:00,
2013-08-01 04:20:00,56.4,50.3,29.93,East,100,0.0,7.0,80,0.00,,,0.00,0,WeatherTracker,2013-08-01 11:20:00,
2013-08-01 04:25:00,56.2,50.4,29.93,East,101,0.0,7.0,81,0.00,,,0.00,0,WeatherTracker,2013-08-01 11:25:00,
2013-08-01 04:30:00,56.0,50.3,29.93,ESE,102,4.0,6.0,81,0.00,,,0.00,0,WeatherTracker,2013-08-01 11:30:00,
2013-08-01 04:35:00,55.9,50.2,29.93,East,101,5.0,6.0,81,0.00,,,0.00,0,WeatherTracker,2013-08-01 11:35:00,
2013-08-01 04:41:00,55.8,50.4,29.93,ESE,102,4.0,6.0,82,0.00,,,0.00,0,WeatherTracker,2013-08-01 11:41:00,
2013-08-01 04:46:00,55.7,50.3,29.93,ESE,103,4.0,8.0,82,0.00,,,0.00,0,WeatherTracker,2013-08-01 11:46:00,
2013-08-01 04:51:00,55.7,50.3,29.93,ESE,103,0.0,8.0,82,0.00,,,0.00,0,WeatherTracker,2013-08-01 11:51:00,
2013-08-01 04:56:00,55.7,50.3,29.93,ESE,103,1.0,7.0,82,0.00,,,0.00,0,WeatherTracker,2013-08-01 11:56:00,
2013-08-01 05:01:00,55.7,50.3,29.93,East,100,0.0,6.0,82,0.00,,,0.00,0,WeatherTracker,2013-08-01 12:01:00,
2013-08-01 05:07:00,55.8,50.4,29.94,East,89,0.0,6.0,82,0.00,,,0.00,0,WeatherTracker,2013-08-01 12:07:00,
2013-08-01 05:12:00,55.8,50.4,29.93,East,101,6.0,8.0,82,0.00,,,0.00,0,WeatherTracker,2013-08-01 12:12:00,
2013-08-01 05:17:00,55.7,50.3,29.94,East,101,5.0,9.0,82,0.00,,,0.00,0,WeatherTracker,2013-08-01 12:17:00,
2013-08-01 05:22:00,55.5,50.1,29.94,East,100,4.0,9.0,82,0.00,,,0.00,0,WeatherTracker,2013-08-01 12:22:00,
2013-08-01 05:27:00,55.4,50.0,29.94,ESE,112,6.0,8.0,82,0.00,,,0.00,0,WeatherTracker,2013-08-01 12:27:00,
2013-08-01 05:32:00,55.3,49.9,29.94,ESE,108,2.0,12.0,82,0.00,,,0.00,0,WeatherTracker,2013-08-01 12:32:00,
2013-08-01 05:37:00,55.2,50.1,29.94,ESE,104,0.0,12.0,83,0.00,,,0.00,0,WeatherTracker,2013-08-01 12:37:00,
2013-08-01 05:42:00,55.2,50.1,29.94,ESE,103,4.0,7.0,83,0.00,,,0.00,0,WeatherTracker,2013-08-01 12:42:00,
2013-08-01 05:47:00,55.1,50.0,29.95,East,96,0.0,6.0,83,0.00,,,0.00,0,WeatherTracker,2013-08-01 12:47:00,
2013-08-01 05:52:00,55.0,49.9,29.95,East,94,4.0,6.0,83,0.00,,,0.00,0,WeatherTracker,2013-08-01 12:52:00,
2013-08-01 05:57:00,55.0,50.3,29.95,East,94,8.0,8.0,84,0.00,,,0.00,0,WeatherTracker,2013-08-01 12:57:00,
2013-08-01 06:02:00,54.9,50.2,29.95,East,97,4.0,8.0,84,0.00,,,0.00,0,WeatherTracker,2013-08-01 13:02:00,
2013-08-01 06:07:00,54.8,50.1,29.95,East,96,4.0,8.0,84,0.00,,,0.00,5,WeatherTracker,2013-08-01 13:07:00,
2013-08-01 06:13:00,54.8,50.1,29.95,East,96,0.0,7.0,84,0.00,,,0.00,7,WeatherTracker,2013-08-01 13:13:00,
2013-08-01 06:18:00,54.7,50.0,29.95,ENE,57,0.0,7.0,84,0.00,,,0.00,9,WeatherTracker,2013-08-01 13:18:00,
2013-08-01 06:23:00,54.7,50.0,29.95,ENE,78,0.0,0.0,84,0.00,,,0.00,11,WeatherTracker,2013-08-01 13:23:00,
2013-08-01 06:28:00,54.7,50.0,29.95,ENE,78,0.0,0.0,84,0.00,,,0.00,14,WeatherTracker,2013-08-01 13:28:00,
2013-08-01 06:33:00,54.8,50.1,29.95,East,79,0.0,0.0,84,0.00,,,0.00,18,WeatherTracker,2013-08-01 13:33:00,
2013-08-01 06:38:00,54.9,50.2,29.95,East,79,0.0,0.0,84,0.00,,,0.00,21,WeatherTracker,2013-08-01 13:38:00,
2013-08-01 06:43:00,55.0,49.9,29.96,East,81,0.0,3.0,83,0.00,,,0.00,23,WeatherTracker,2013-08-01 13:43:00,
2013-08-01 06:48:00,55.1,50.0,29.96,East,81,0.0,4.0,83,0.00,,,0.00,26,WeatherTracker,2013-08-01 13:48:00,
2013-08-01 06:53:00,55.2,50.1,29.96,ENE,73,0.0,4.0,83,0.00,,,0.00,28,WeatherTracker,2013-08-01 13:53:00,
2013-08-01 06:58:00,55.4,50.3,29.96,ENE,71,0.0,0.0,83,0.00,,,0.00,97,WeatherTracker,2013-08-01 13:58:00,
2013-08-01 07:03:00,55.6,50.5,29.96,ENE,70,0.0,0.0,83,0.00,,,0.00,113,WeatherTracker,2013-08-01 14:03:00,
2013-08-01 07:08:00,55.8,50.7,29.96,ENE,71,0.0,0.0,83,0.00,,,0.00,93,WeatherTracker,2013-08-01 14:08:00,
2013-08-01 07:14:00,56.5,51.1,29.96,ENE,73,0.0,4.0,82,0.00,,,0.00,146,WeatherTracker,2013-08-01 14:14:00,
2013-08-01 07:19:00,57.1,51.3,29.97,ENE,73,0.0,4.0,81,0.00,,,0.00,165,WeatherTracker,2013-08-01 14:19:00,
2013-08-01 07:24:00,57.5,51.4,29.97,ENE,73,0.0,4.0,80,0.00,,,0.00,181,WeatherTracker,2013-08-01 14:24:00,
2013-08-01 07:29:00,58.2,51.7,29.97,ENE,73,0.0,0.0,79,0.00,,,0.00,202,WeatherTracker,2013-08-01 14:29:00,
2013-08-01 07:35:00,59.0,51.8,29.97,ENE,73,0.0,0.0,77,0.00,,,0.00,220,WeatherTracker,2013-08-01 14:35:00,
2013-08-01 07:40:00,59.5,51.6,29.97,ENE,73,0.0,0.0,75,0.00,,,0.00,237,WeatherTracker,2013-08-01 14:40:00,
2013-08-01 07:45:00,60.0,52.1,29.97,ENE,73,0.0,0.0,75,0.00,,,0.00,253,WeatherTracker,2013-08-01 14:45:00,
2013-08-01 07:50:00,60.7,52.0,29.97,ENE,73,0.0,0.0,73,0.00,,,0.00,262,WeatherTracker,2013-08-01 14:50:00,
2013-08-01 07:56:00,61.0,51.9,29.98,ENE,73,0.0,0.0,72,0.00,,,0.00,288,WeatherTracker,2013-08-01 14:56:00,
2013-08-01 08:01:00,61.3,52.2,29.98,ENE,73,0.0,0.0,72,0.00,,,0.00,304,WeatherTracker,2013-08-01 15:01:00,
2013-08-01 08:06:00,61.4,52.3,29.98,ENE,73,0.0,0.0,72,0.00,,,0.00,316,WeatherTracker,2013-08-01 15:06:00,
2013-08-01 08:11:00,61.7,52.6,29.98,ENE,73,0.0,0.0,72,0.00,,,0.00,339,WeatherTracker,2013-08-01 15:11:00,
2013-08-01 08:16:00,62.3,52.8,29.98,ENE,73,0.0,0.0,71,0.00,,,0.00,357,WeatherTracker,2013-08-01 15:16:00,
2013-08-01 08:22:00,63.2,52.9,29.98,ENE,73,0.0,0.0,69,0.00,,,0.00,373,WeatherTracker,2013-08-01 15:22:00,
2013-08-01 08:27:00,63.4,53.0,29.98,ENE,73,0.0,0.0,69,0.00,,,0.00,390,WeatherTracker,2013-08-01 15:27:00,
2013-08-01 08:32:00,63.9,52.7,29.99,ENE,73,0.0,0.0,67,0.00,,,0.00,406,WeatherTracker,2013-08-01 15:32:00,
2013-08-01 08:37:00,63.8,52.6,29.99,ENE,73,0.0,0.0,67,0.00,,,0.00,425,WeatherTracker,2013-08-01 15:37:00,
2013-08-01 08:42:00,63.9,52.7,29.99,ENE,70,0.0,0.0,67,0.00,,,0.00,441,WeatherTracker,2013-08-01 15:42:00,
2013-08-01 08:47:00,64.4,53.2,29.99,ENE,70,0.0,0.0,67,0.00,,,0.00,459,WeatherTracker,2013-08-01 15:47:00,
2013-08-01 08:52:00,65.2,53.5,29.99,ENE,70,0.0,0.0,66,0.00,,,0.00,476,WeatherTracker,2013-08-01 15:52:00,
2013-08-01 08:57:00,66.0,53.5,29.99,ESE,104,0.0,0.0,64,0.00,,,0.00,487,WeatherTracker,2013-08-01 15:57:00,
2013-08-01 09:02:00,66.3,53.3,29.99,ESE,104,0.0,0.0,63,0.00,,,0.00,501,WeatherTracker,2013-08-01 16:02:00,
2013-08-01 09:08:00,66.8,53.8,29.99,East,98,0.0,0.0,63,0.00,,,0.00,517,WeatherTracker,2013-08-01 16:08:00,
2013-08-01 09:13:00,67.4,53.9,29.99,NE,49,0.0,1.0,62,0.00,,,0.00,534,WeatherTracker,2013-08-01 16:13:00,
2013-08-01 09:18:00,67.8,54.3,30.00,NNW,342,0.0,1.0,62,0.00,,,0.00,548,WeatherTracker,2013-08-01 16:18:00,
2013-08-01 09:23:00,67.7,54.2,29.99,NNW,344,0.0,0.0,62,0.00,,,0.00,564,WeatherTracker,2013-08-01 16:23:00,
2013-08-01 09:28:00,68.2,54.2,30.00,NNW,344,0.0,1.0,61,0.00,,,0.00,580,WeatherTracker,2013-08-01 16:28:00,
2013-08-01 09:33:00,68.5,54.1,30.00,North,5,0.0,1.0,60,0.00,,,0.00,596,WeatherTracker,2013-08-01 16:33:00,
2013-08-01 09:38:00,68.9,54.0,30.00,North,5,0.0,0.0,59,0.00,,,0.00,610,WeatherTracker,2013-08-01 16:38:00,
2013-08-01 09:43:00,69.3,54.3,30.00,North,5,0.0,0.0,59,0.00,,,0.00,624,WeatherTracker,2013-08-01 16:43:00,
2013-08-01 09:48:00,69.7,53.8,30.00,SW,232,0.0,0.0,57,0.00,,,0.00,640,WeatherTracker,2013-08-01 16:48:00,
2013-08-01 09:54:00,70.4,54.4,30.00,SW,223,0.0,0.0,57,0.00,,,0.00,649,WeatherTracker,2013-08-01 16:54:00,
2013-08-01 09:59:00,70.7,54.7,30.00,SW,218,0.0,0.0,57,0.00,,,0.00,664,WeatherTracker,2013-08-01 16:59:00,
2013-08-01 10:04:00,71.3,54.8,30.00,SW,218,0.0,0.0,56,0.00,,,0.00,679,WeatherTracker,2013-08-01 17:04:00,
2013-08-01 10:09:00,71.7,54.7,30.00,NNE,24,0.0,0.0,55,0.00,,,0.00,693,WeatherTracker,2013-08-01 17:09:00,
2013-08-01 10:14:00,71.5,55.5,30.00,NNE,26,3.0,4.0,57,0.00,,,0.00,701,WeatherTracker,2013-08-01 17:14:00,
2013-08-01 10:19:00,71.6,55.1,30.01,ENE,76,0.0,4.0,56,0.00,,,0.00,717,WeatherTracker,2013-08-01 17:19:00,
2013-08-01 10:24:00,72.3,54.7,30.01,ENE,75,0.0,3.0,54,0.00,,,0.00,728,WeatherTracker,2013-08-01 17:24:00,
2013-08-01 10:29:00,72.7,55.1,30.01,ENE,76,0.0,3.0,54,0.00,,,0.00,740,WeatherTracker,2013-08-01 17:29:00,
2013-08-01 10:34:00,72.6,56.0,30.00,ENE,76,0.0,3.0,56,0.00,,,0.00,756,WeatherTracker,2013-08-01 17:34:00,
2013-08-01 10:39:00,73.4,56.2,30.01,ESE,108,0.0,3.0,55,0.00,,,0.00,765,WeatherTracker,2013-08-01 17:39:00,
2013-08-01 10:44:00,74.1,56.4,30.01,ESE,109,0.0,2.0,54,0.00,,,0.00,775,WeatherTracker,2013-08-01 17:44:00,
2013-08-01 10:50:00,74.9,56.6,30.01,South,171,4.0,6.0,53,0.00,,,0.00,786,WeatherTracker,2013-08-01 17:50:00,
2013-08-01 10:55:00,75.2,56.3,30.01,ESE,121,2.0,6.0,52,0.00,,,0.00,798,WeatherTracker,2013-08-01 17:55:00,
2013-08-01 11:01:00,75.3,56.4,30.01,ESE,121,0.0,5.0,52,0.00,,,0.00,810,WeatherTracker,2013-08-01 18:01:00,
2013-08-01 11:06:00,75.6,56.2,30.01,SSE,154,5.0,5.0,51,0.00,,,0.00,817,WeatherTracker,2013-08-01 18:06:00,
2013-08-01 11:11:00,74.7,56.9,30.01,SSE,162,0.0,6.0,54,0.00,,,0.00,826,WeatherTracker,2013-08-01 18:11:00,
2013-08-01 11:16:00,75.2,55.8,30.01,SSE,168,0.0,6.0,51,0.00,,,0.00,835,WeatherTracker,2013-08-01 18:16:00,
2013-08-01 11:21:00,75.9,56.5,30.01,SSE,168,0.0,6.0,51,0.00,,,0.00,844,WeatherTracker,2013-08-01 18:21:00,
2013-08-01 11:26:00,77.0,58.5,30.01,North,9,0.0,1.0,53,0.00,,,0.00,853,WeatherTracker,2013-08-01 18:26:00,
2013-08-01 11:31:00,76.6,56.5,30.01,ENE,65,0.0,3.0,50,0.00,,,0.00,856,WeatherTracker,2013-08-01 18:31:00,
2013-08-01 11:36:00,77.1,58.6,30.01,ENE,69,0.0,3.0,53,0.00,,,0.00,867,WeatherTracker,2013-08-01 18:36:00,
2013-08-01 11:41:00,77.5,56.8,30.01,SSW,198,0.0,5.0,49,0.00,,,0.00,872,WeatherTracker,2013-08-01 18:41:00,
2013-08-01 11:46:00,77.7,58.1,30.01,SSW,205,0.0,5.0,51,0.00,,,0.00,874,WeatherTracker,2013-08-01 18:46:00,
2013-08-01 11:52:00,77.8,57.1,30.01,SSW,198,0.0,4.0,49,0.00,,,0.00,889,WeatherTracker,2013-08-01 18:52:00,
2013-08-01 11:57:00,77.7,55.8,30.01,ESE,109,0.0,4.0,47,0.00,,,0.00,896,WeatherTracker,2013-08-01 18:57:00,
2013-08-01 12:02:00,77.8,57.1,30.01,ESE,114,0.0,6.0,49,0.00,,,0.00,898,WeatherTracker,2013-08-01 19:02:00,
2013-08-01 12:07:00,78.4,57.6,30.00,East,94,0.0,6.0,49,0.00,,,0.00,907,WeatherTracker,2013-08-01 19:07:00,
2013-08-01 12:12:00,79.0,57.0,30.00,East,94,0.0,5.0,47,0.00,,,0.00,911,WeatherTracker,2013-08-01 19:12:00,
2013-08-01 12:17:00,79.8,55.9,30.00,ESE,110,0.0,5.0,44,0.00,,,0.00,918,WeatherTracker,2013-08-01 19:17:00,
2013-08-01 12:22:00,80.1,56.2,30.00,South,185,0.0,7.0,44,0.00,,,0.00,925,WeatherTracker,2013-08-01 19:22:00,
2013-08-01 12:27:00,80.5,53.9,30.00,ENE,67,1.0,7.0,40,0.00,,,0.00,925,WeatherTracker,2013-08-01 19:27:00,
2013-08-01 12:33:00,80.5,54.6,30.00,ENE,68,0.0,7.0,41,0.00,,,0.00,928,WeatherTracker,2013-08-01 19:33:00,
2013-08-01 12:38:00,80.7,54.8,30.00,SSE,164,6.0,7.0,41,0.00,,,0.00,932,WeatherTracker,2013-08-01 19:38:00,
2013-08-01 12:43:00,81.1,53.8,30.00,SSE,161,0.0,7.0,39,0.00,,,0.00,932,WeatherTracker,2013-08-01 19:43:00,
2013-08-01 12:48:00,81.6,58.2,29.99,SSE,155,5.0,7.0,45,0.00,,,0.00,935,WeatherTracker,2013-08-01 19:48:00,
2013-08-01 12:54:00,82.3,56.9,29.99,SE,130,0.0,6.0,42,0.00,,,0.00,937,WeatherTracker,2013-08-01 19:54:00,
2013-08-01 12:59:00,82.2,56.8,29.99,SE,126,0.0,9.0,42,0.00,,,0.00,932,WeatherTracker,2013-08-01 19:59:00,
2013-08-01 13:04:00,82.0,57.3,29.99,East,94,2.0,9.0,43,0.00,,,0.00,932,WeatherTracker,2013-08-01 20:04:00,
2013-08-01 13:09:00,82.7,58.5,29.99,SE,131,1.0,9.0,44,0.00,,,0.00,937,WeatherTracker,2013-08-01 20:09:00,
2013-08-01 13:14:00,82.9,58.1,29.99,SE,134,4.0,9.0,43,0.00,,,0.00,933,WeatherTracker,2013-08-01 20:14:00,
2013-08-01 13:19:00,82.7,56.6,29.99,SE,131,0.0,9.0,41,0.00,,,0.00,932,WeatherTracker,2013-08-01 20:19:00,
2013-08-01 13:24:00,83.5,58.6,29.99,South,173,0.0,6.0,43,0.00,,,0.00,930,WeatherTracker,2013-08-01 20:24:00,
2013-08-01 13:29:00,84.0,58.4,29.98,SE,138,6.0,8.0,42,0.00,,,0.00,930,WeatherTracker,2013-08-01 20:29:00,
2013-08-01 13:34:00,84.4,59.4,29.98,SE,138,6.0,11.0,43,0.00,,,0.00,930,WeatherTracker,2013-08-01 20:34:00,
2013-08-01 13:39:00,84.3,56.6,29.98,ESE,118,0.0,11.0,39,0.00,,,0.00,923,WeatherTracker,2013-08-01 20:39:00,
2013-08-01 13:40:00,84.2,57.9,29.98,ESE,116,1.0,8.0,41,0.00,,,0.00,923,WeatherTracker,2013-08-01 20:40:00,
2013-08-01 13:46:00,84.1,56.4,29.98,East,88,0.0,5.0,39,0.00,,,0.00,918,WeatherTracker,2013-08-01 20:46:00,
2013-08-01 13:51:00,83.9,56.3,29.98,SE,132,0.0,9.0,39,0.00,,,0.00,918,WeatherTracker,2013-08-01 20:51:00,
2013-08-01 13:56:00,83.5,56.6,29.98,SE,142,8.0,9.0,40,0.00,,,0.00,912,WeatherTracker,2013-08-01 20:56:00,
2013-08-01 14:01:00,83.7,56.8,29.98,SE,128,6.0,11.0,40,0.00,,,0.00,912,WeatherTracker,2013-08-01 21:01:00,
2013-08-01 14:06:00,83.8,56.2,29.97,SE,136,0.0,11.0,39,0.00,,,0.00,904,WeatherTracker,2013-08-01 21:06:00,
2013-08-01 14:12:00,84.0,56.3,29.97,SE,130,0.0,9.0,39,0.00,,,0.00,902,WeatherTracker,2013-08-01 21:12:00,
2013-08-01 14:17:00,84.3,56.6,29.97,SE,126,8.0,9.0,39,0.00,,,0.00,896,WeatherTracker,2013-08-01 21:17:00,
2013-08-01 14:22:00,84.9,54.9,29.97,East,92,5.0,9.0,36,0.00,,,0.00,889,WeatherTracker,2013-08-01 21:22:00,
2013-08-01 14:27:00,85.0,54.2,29.97,ENE,73,4.0,9.0,35,0.00,,,0.00,881,WeatherTracker,2013-08-01 21:27:00,
2013-08-01 14:32:00,84.7,56.2,29.97,SSE,147,6.0,7.0,38,0.00,,,0.00,877,WeatherTracker,2013-08-01 21:32:00,
2013-08-01 14:37:00,84.7,55.5,29.96,SSE,163,2.0,7.0,37,0.00,,,0.00,874,WeatherTracker,2013-08-01 21:37:00,
2013-08-01 14:42:00,84.7,54.8,29.96,East,83,5.0,9.0,36,0.00,,,0.00,867,WeatherTracker,2013-08-01 21:42:00,
2013-08-01 14:47:00,85.1,55.9,29.96,ESE,111,5.0,9.0,37,0.00,,,0.00,858,WeatherTracker,2013-08-01 21:47:00,
2013-08-01 14:52:00,85.3,56.0,29.96,ESE,107,6.0,8.0,37,0.00,,,0.00,851,WeatherTracker,2013-08-01 21:52:00,
2013-08-01 14:57:00,85.4,55.4,29.96,SE,126,4.0,8.0,36,0.00,,,0.00,840,WeatherTracker,2013-08-01 21:57:00,
2013-08-01 15:02:00,85.4,55.4,29.95,East,81,0.0,7.0,36,0.00,,,0.00,831,WeatherTracker,2013-08-01 22:02:00,
2013-08-01 15:07:00,85.3,55.3,29.95,SE,136,7.0,7.0,36,0.00,,,0.00,821,WeatherTracker,2013-08-01 22:07:00,
2013-08-01 15:12:00,85.5,57.0,29.95,ESE,109,0.0,8.0,38,0.00,,,0.00,810,WeatherTracker,2013-08-01 22:12:00,
2013-08-01 15:17:00,86.1,56.7,29.95,SE,125,4.0,8.0,37,0.00,,,0.00,803,WeatherTracker,2013-08-01 22:17:00,
2013-08-01 15:22:00,86.1,56.0,29.95,East,99,0.0,11.0,36,0.00,,,0.00,793,WeatherTracker,2013-08-01 22:22:00,
2013-08-01 15:28:00,86.4,56.3,29.95,ENE,71,5.0,11.0,36,0.00,,,0.00,780,WeatherTracker,2013-08-01 22:28:00,
2013-08-01 15:33:00,86.6,56.4,29.94,SSE,153,0.0,9.0,36,0.00,,,0.00,768,WeatherTracker,2013-08-01 22:33:00,
2013-08-01 15:38:00,86.8,55.8,29.94,ESE,109,5.0,9.0,35,0.00,,,0.00,759,WeatherTracker,2013-08-01 22:38:00,
2013-08-01 15:43:00,87.0,56.8,29.94,SE,129,7.0,9.0,36,0.00,,,0.00,749,WeatherTracker,2013-08-01 22:43:00,
2013-08-01 15:48:00,86.8,56.6,29.94,East,101,4.0,12.0,36,0.00,,,0.00,737,WeatherTracker,2013-08-01 22:48:00,
2013-08-01 15:53:00,86.7,56.5,29.93,ESE,111,0.0,12.0,36,0.00,,,0.00,726,WeatherTracker,2013-08-01 22:53:00,
2013-08-01 15:58:00,86.8,56.6,29.93,ESE,116,0.0,11.0,36,0.00,,,0.00,712,WeatherTracker,2013-08-01 22:58:00,
2013-08-01 16:03:00,87.0,56.8,29.93,ESE,113,8.0,8.0,36,0.00,,,0.00,703,WeatherTracker,2013-08-01 23:03:00,
2013-08-01 16:08:00,86.7,55.7,29.93,SE,132,7.0,11.0,35,0.00,,,0.00,689,WeatherTracker,2013-08-01 23:08:00,
2013-08-01 16:13:00,87.0,56.0,29.92,ESE,118,4.0,11.0,35,0.00,,,0.00,677,WeatherTracker,2013-08-01 23:13:00,
2013-08-01 16:18:00,87.1,56.1,29.92,East,99,2.0,11.0,35,0.00,,,0.00,664,WeatherTracker,2013-08-01 23:18:00,
2013-08-01 16:23:00,87.2,56.2,29.92,East,82,5.0,11.0,35,0.00,,,0.00,656,WeatherTracker,2013-08-01 23:23:00,
2013-08-01 16:29:00,87.4,56.4,29.92,ESE,123,6.0,11.0,35,0.00,,,0.00,635,WeatherTracker,2013-08-01 23:29:00,
2013-08-01 16:34:00,87.2,56.2,29.91,ENE,67,5.0,9.0,35,0.00,,,0.00,617,WeatherTracker,2013-08-01 23:34:00,
2013-08-01 16:39:00,87.2,57.0,29.91,SE,124,7.0,9.0,36,0.00,,,0.00,612,WeatherTracker,2013-08-01 23:39:00,
2013-08-01 16:44:00,87.0,56.8,29.91,ESE,116,4.0,9.0,36,0.00,,,0.00,591,WeatherTracker,2013-08-01 23:44:00,
2013-08-01 16:49:00,86.7,56.5,29.91,SE,134,9.0,11.0,36,0.00,,,0.00,577,WeatherTracker,2013-08-01 23:49:00,
2013-08-01 16:54:00,86.8,56.6,29.91,ESE,118,6.0,11.0,36,0.00,,,0.00,564,WeatherTracker,2013-08-01 23:54:00,
2013-08-01 16:59:00,87.1,56.9,29.91,SE,144,6.0,11.0,36,0.00,,,0.00,550,WeatherTracker,2013-08-01 23:59:00,
2013-08-01 17:05:00,87.1,56.9,29.91,ESE,119,8.0,11.0,36,0.00,,,0.00,533,WeatherTracker,2013-08-02 00:05:00,
2013-08-01 17:10:00,87.2,56.2,29.91,SE,126,8.0,9.0,35,0.00,,,0.00,517,WeatherTracker,2013-08-02 00:10:00,
2013-08-01 17:15:00,87.1,56.9,29.91,SSE,163,4.0,13.0,36,0.00,,,0.00,504,WeatherTracker,2013-08-02 00:15:00,
2013-08-01 17:20:00,87.1,56.9,29.91,SE,133,9.0,13.0,36,0.00,,,0.00,485,WeatherTracker,2013-08-02 00:20:00,
2013-08-01 17:25:00,87.2,57.0,29.90,SSE,166,0.0,11.0,36,0.00,,,0.00,471,WeatherTracker,2013-08-02 00:25:00,
2013-08-01 17:30:00,87.4,57.1,29.90,SE,138,5.0,11.0,36,0.00,,,0.00,455,WeatherTracker,2013-08-02 00:30:00,
2013-08-01 17:35:00,87.6,57.3,29.90,SSE,153,0.0,9.0,36,0.00,,,0.00,439,WeatherTracker,2013-08-02 00:35:00,
2013-08-01 17:41:00,87.5,56.4,29.90,SSE,149,0.0,7.0,35,0.00,,,0.00,424,WeatherTracker,2013-08-02 00:41:00,
2013-08-01 17:46:00,87.5,57.2,29.90,SE,126,0.0,7.0,36,0.00,,,0.00,404,WeatherTracker,2013-08-02 00:46:00,
2013-08-01 17:51:00,87.5,57.2,29.90,ESE,105,9.0,9.0,36,0.00,,,0.00,392,WeatherTracker,2013-08-02 00:51:00,
2013-08-01 17:56:00,87.1,56.1,29.90,East,92,7.0,12.0,35,0.00,,,0.00,374,WeatherTracker,2013-08-02 00:56:00,
2013-08-01 18:01:00,86.9,56.7,29.89,SE,128,8.0,12.0,36,0.00,,,0.00,357,WeatherTracker,2013-08-02 01:01:00,
2013-08-01 18:06:00,86.6,56.4,29.89,SSE,152,1.0,11.0,36,0.00,,,0.00,341,WeatherTracker,2013-08-02 01:06:00,
2013-08-01 18:11:00,86.7,56.5,29.89,SE,138,5.0,11.0,36,0.00,,,0.00,325,WeatherTracker,2013-08-02 01:11:00,
2013-08-01 18:16:00,86.3,55.4,29.89,ESE,119,0.0,9.0,35,0.00,,,0.00,309,WeatherTracker,2013-08-02 01:16:00,
2013-08-01 18:21:00,86.3,55.4,29.89,ESE,104,0.0,9.0,35,0.00,,,0.00,292,WeatherTracker,2013-08-02 01:21:00,
2013-08-01 18:26:00,86.0,54.3,29.89,ESE,109,1.0,11.0,34,0.00,,,0.00,276,WeatherTracker,2013-08-02 01:26:00,
2013-08-01 18:31:00,85.7,55.6,29.89,SE,130,5.0,11.0,36,0.00,,,0.00,260,WeatherTracker,2013-08-02 01:31:00,
2013-08-01 18:36:00,85.4,54.6,29.89,SE,128,6.0,9.0,35,0.00,,,0.00,241,WeatherTracker,2013-08-02 01:36:00,
2013-08-01 18:42:00,85.2,55.2,29.89,ESE,111,2.0,11.0,36,0.00,,,0.00,221,WeatherTracker,2013-08-02 01:42:00,
2013-08-01 18:47:00,85.3,58.2,29.88,ESE,115,4.0,11.0,40,0.00,,,0.00,200,WeatherTracker,2013-08-02 01:47:00,
2013-08-01 18:52:00,84.5,58.9,29.88,SE,127,5.0,11.0,42,0.00,,,0.00,179,WeatherTracker,2013-08-02 01:52:00,
2013-08-01 18:57:00,84.0,58.4,29.89,SE,127,7.0,12.0,42,0.00,,,0.00,160,WeatherTracker,2013-08-02 01:57:00,
2013-08-01 19:02:00,83.6,58.7,29.89,SE,140,4.0,12.0,43,0.00,,,0.00,144,WeatherTracker,2013-08-02 02:02:00,
2013-08-01 19:07:00,83.6,58.7,29.88,SE,134,0.0,12.0,43,0.00,,,0.00,58,WeatherTracker,2013-08-02 02:07:00,
2013-08-01 19:12:00,83.5,58.6,29.88,SSE,155,1.0,8.0,43,0.00,,,0.00,35,WeatherTracker,2013-08-02 02:12:00,
2013-08-01 19:17:00,83.1,58.9,29.88,SSE,163,0.0,8.0,44,0.00,,,0.00,46,WeatherTracker,2013-08-02 02:17:00,
2013-08-01 19:22:00,82.3,58.8,29.88,South,169,5.0,8.0,45,0.00,,,0.00,30,WeatherTracker,2013-08-02 02:22:00,
2013-08-01 19:27:00,81.6,58.2,29.88,SSE,161,5.0,9.0,45,0.00,,,0.00,28,WeatherTracker,2013-08-02 02:27:00,
2013-08-01 19:32:00,81.1,58.3,29.88,SSE,163,0.0,9.0,46,0.00,,,0.00,23,WeatherTracker,2013-08-02 02:32:00,
2013-08-01 19:37:00,80.7,58.6,29.88,SSE,164,2.0,7.0,47,0.00,,,0.00,30,WeatherTracker,2013-08-02 02:37:00,
2013-08-01 19:42:00,80.2,58.1,29.89,SSE,164,0.0,5.0,47,0.00,,,0.00,21,WeatherTracker,2013-08-02 02:42:00,
2013-08-01 19:47:00,79.9,58.4,29.88,SSE,163,0.0,5.0,48,0.00,,,0.00,18,WeatherTracker,2013-08-02 02:47:00,
2013-08-01 19:52:00,79.8,58.9,29.88,SSE,163,0.0,4.0,49,0.00,,,0.00,16,WeatherTracker,2013-08-02 02:52:00,
2013-08-01 19:57:00,79.3,59.0,29.88,SSE,163,0.0,1.0,50,0.00,,,0.00,12,WeatherTracker,2013-08-02 02:57:00,
2013-08-01 20:02:00,78.9,58.7,29.89,SSE,163,0.0,1.0,50,0.00,,,0.00,11,WeatherTracker,2013-08-02 03:02:00,
2013-08-01 20:08:00,78.5,58.8,29.89,ESE,121,0.0,1.0,51,0.00,,,0.00,9,WeatherTracker,2013-08-02 03:08:00,
2013-08-01 20:13:00,78.0,58.9,29.89,SE,130,0.0,5.0,52,0.00,,,0.00,7,WeatherTracker,2013-08-02 03:13:00,
2013-08-01 20:18:00,77.6,58.6,29.89,SE,130,0.0,5.0,52,0.00,,,0.00,5,WeatherTracker,2013-08-02 03:18:00,
2013-08-01 20:23:00,77.2,58.2,29.89,SE,132,0.0,1.0,52,0.00,,,0.00,0,WeatherTracker,2013-08-02 03:23:00,
2013-08-01 20:28:00,76.9,58.4,29.88,SE,132,0.0,1.0,53,0.00,,,0.00,0,WeatherTracker,2013-08-02 03:28:00,
2013-08-01 20:33:00,76.5,58.1,29.89,SE,132,0.0,2.0,53,0.00,,,0.00,0,WeatherTracker,2013-08-02 03:33:00,
2013-08-01 20:38:00,76.2,57.8,29.89,SE,132,0.0,2.0,53,0.00,,,0.00,0,WeatherTracker,2013-08-02 03:38:00,
2013-08-01 20:43:00,75.8,58.0,29.89,SE,132,0.0,0.0,54,0.00,,,0.00,0,WeatherTracker,2013-08-02 03:43:00,
2013-08-01 20:48:00,75.5,57.7,29.89,SE,132,0.0,0.0,54,0.00,,,0.00,0,WeatherTracker,2013-08-02 03:48:00,
2013-08-01 20:53:00,75.2,57.4,29.89,SE,132,0.0,0.0,54,0.00,,,0.00,0,WeatherTracker,2013-08-02 03:53:00,
2013-08-01 20:58:00,74.9,57.6,29.89,SE,128,4.0,0.0,55,0.00,,,0.00,0,WeatherTracker,2013-08-02 03:58:00,
2013-08-01 21:01:00,74.7,57.4,29.89,SE,128,0.0,4.0,55,0.00,,,0.00,0,WeatherTracker,2013-08-02 04:01:00,
2013-08-01 21:02:00,74.6,57.3,29.89,SE,128,0.0,4.0,55,0.00,,,0.00,0,WeatherTracker,2013-08-02 04:02:00,
2013-08-01 21:07:00,74.0,57.3,29.89,SE,128,0.0,4.0,56,0.00,,,0.00,0,WeatherTracker,2013-08-02 04:07:00,
2013-08-01 21:12:00,73.4,57.7,29.89,SE,128,0.0,1.0,58,0.00,,,0.00,0,WeatherTracker,2013-08-02 04:12:00,
2013-08-01 21:16:00,73.0,56.9,29.89,SE,128,0.0,0.0,57,0.00,,,0.00,0,WeatherTracker,2013-08-02 04:16:00,
2013-08-01 21:21:00,72.7,57.1,29.89,SE,128,0.0,0.0,58,0.00,,,0.00,0,WeatherTracker,2013-08-02 04:21:00,
2013-08-01 21:26:00,72.4,56.8,29.89,SE,128,0.0,0.0,58,0.00,,,0.00,0,WeatherTracker,2013-08-02 04:26:00,
2013-08-01 21:31:00,72.0,56.4,29.89,SE,128,0.0,0.0,58,0.00,,,0.00,0,WeatherTracker,2013-08-02 04:31:00,
2013-08-01 21:36:00,71.7,56.6,29.89,SE,128,0.0,0.0,59,0.00,,,0.00,0,WeatherTracker,2013-08-02 04:36:00,
2013-08-01 21:41:00,71.4,56.3,29.89,SE,128,0.0,0.0,59,0.00,,,0.00,0,WeatherTracker,2013-08-02 04:41:00,
2013-08-01 21:46:00,71.2,56.1,29.89,SE,128,0.0,0.0,59,0.00,,,0.00,0,WeatherTracker,2013-08-02 04:46:00,
2013-08-01 21:52:00,70.9,56.3,29.90,SE,128,0.0,1.0,60,0.00,,,0.00,0,WeatherTracker,2013-08-02 04:52:00,
2013-08-01 21:57:00,70.5,55.9,29.90,SE,128,0.0,1.0,60,0.00,,,0.00,0,WeatherTracker,2013-08-02 04:57:00,
2013-08-01 22:02:00,70.2,56.1,29.90,SE,128,0.0,0.0,61,0.00,,,0.00,0,WeatherTracker,2013-08-02 05:02:00,
2013-08-01 22:07:00,69.9,55.8,29.90,SE,128,0.0,0.0,61,0.00,,,0.00,0,WeatherTracker,2013-08-02 05:07:00,
2013-08-01 22:12:00,69.7,55.6,29.90,SE,128,0.0,0.0,61,0.00,,,0.00,0,WeatherTracker,2013-08-02 05:12:00,
2013-08-01 22:17:00,69.4,55.4,29.90,SE,128,0.0,0.0,61,0.00,,,0.00,0,WeatherTracker,2013-08-02 05:17:00,
2013-08-01 22:22:00,69.1,55.5,29.90,SE,128,0.0,0.0,62,0.00,,,0.00,0,WeatherTracker,2013-08-02 05:22:00,
2013-08-01 22:27:00,68.9,55.3,29.90,SE,128,0.0,0.0,62,0.00,,,0.00,0,WeatherTracker,2013-08-02 05:27:00,
2013-08-01 22:32:00,68.6,55.5,29.90,SE,128,0.0,0.0,63,0.00,,,0.00,0,WeatherTracker,2013-08-02 05:32:00,
2013-08-01 22:37:00,68.4,54.9,29.90,SE,128,0.0,0.0,62,0.00,,,0.00,0,WeatherTracker,2013-08-02 05:37:00,
2013-08-01 22:42:00,68.1,54.6,29.90,SE,128,0.0,0.0,62,0.00,,,0.00,0,WeatherTracker,2013-08-02 05:42:00,
2013-08-01 22:47:00,67.9,54.8,29.90,SE,128,0.0,0.0,63,0.00,,,0.00,0,WeatherTracker,2013-08-02 05:47:00,
2013-08-01 22:52:00,67.7,54.6,29.90,SE,128,0.0,0.0,63,0.00,,,0.00,0,WeatherTracker,2013-08-02 05:52:00,
2013-08-01 22:57:00,67.5,54.9,29.90,SE,128,0.0,0.0,64,0.00,,,0.00,0,WeatherTracker,2013-08-02 05:57:00,
2013-08-01 23:02:00,67.1,54.5,29.90,SE,128,0.0,1.0,64,0.00,,,0.00,0,WeatherTracker,2013-08-02 06:02:00,
2013-08-01 23:07:00,66.9,54.7,29.90,SE,128,0.0,1.0,65,0.00,,,0.00,0,WeatherTracker,2013-08-02 06:07:00,
2013-08-01 23:12:00,66.6,54.5,29.90,SE,128,0.0,0.0,65,0.00,,,0.00,0,WeatherTracker,2013-08-02 06:12:00,
2013-08-01 23:17:00,66.4,54.3,29.90,SE,128,0.0,0.0,65,0.00,,,0.00,0,WeatherTracker,2013-08-02 06:17:00,
2013-08-01 23:22:00,66.1,54.4,29.90,SE,128,0.0,0.0,66,0.00,,,0.00,0,WeatherTracker,2013-08-02 06:22:00,
2013-08-01 23:27:00,65.7,54.4,29.90,SE,128,0.0,0.0,67,0.00,,,0.00,0,WeatherTracker,2013-08-02 06:27:00,
2013-08-01 23:33:00,65.3,54.5,29.90,SE,128,0.0,1.0,68,0.00,,,0.00,0,WeatherTracker,2013-08-02 06:33:00,
2013-08-01 23:38:00,65.0,54.6,29.90,SE,128,0.0,1.0,69,0.00,,,0.00,0,WeatherTracker,2013-08-02 06:38:00,
2013-08-01 23:43:00,64.6,54.6,29.90,SE,128,0.0,0.0,70,0.00,,,0.00,0,WeatherTracker,2013-08-02 06:43:00,
2013-08-01 23:48:00,64.3,54.3,29.90,SE,128,0.0,0.0,70,0.00,,,0.00,0,WeatherTracker,2013-08-02 06:48:00,
2013-08-01 23:53:00,64.1,54.1,29.90,SE,128,0.0,0.0,70,0.00,,,0.00,0,WeatherTracker,2013-08-02 06:53:00,
2013-08-01 23:58:00,64.0,54.0,29.90,SE,128,0.0,0.0,70,0.00,,,0.00,0,WeatherTracker,2013-08-02 06:58:00,